Weather History for YSCB - October, 2012

Change the Weather History Date:

Tuesday, October 30, 2012

  Actual Average Record
Temperature  
Mean Temperature 60 °F -  
Max Temperature 78 °F 73 °F - ()
Min Temperature 42 °F 48 °F - ()
Degree Days  
Heating Degree Days 5    
Growing Degree Days 10 (Base 50)    
Moisture  
Dew Point 48 °F    
Average Humidity 69    
Maximum Humidity 100    
Minimum Humidity 24    
Precipitation  
Precipitation 0.04 in 0.09 in - ()
Sea Level Pressure  
Sea Level Pressure 30.04 in    
Wind  
Wind Speed 5 mph ()    
Max Wind Speed 21 mph    
Max Gust Speed -    
Visibility 6.2 miles    
Events Fog , Rain , Thunderstorm    
T = Trace of Precipitation, MM = Missing Value Source: Averaged Metar Reports

Daily Weather History Graph

Daily Weather History Graph

Search for Another Location

Airport or City:

Trip Planner

Search our weather history database for the weather conditions in past years. The results will help you decide how hot, cold, wet, or windy it might be!

Date:

Astronomy

Oct. 30, 2012 Rise Set
Actual Time 6:02 AM AEDT 7:31 PM AEDT
Civil Twilight 5:35 AM AEDT 7:58 PM AEDT
Nautical Twilight 5:03 AM AEDT 8:30 PM AEDT
Astronomical Twilight 4:29 AM AEDT 9:04 PM AEDT
Moon 7:59 PM AEDT (10/30) 5:57 AM AEDT (10/30)
Length of Visible Light 14h 22m
Length of Day
13h 29m
Full, 100% of the Moon is Illuminated
Oct 30
Full
Nov 7
Last Quarter
Nov 14
New
Nov 21
First Quarter
Nov 29
Full

Hourly Weather History & Observations

Time (AEDT) Temp. Windchill Dew Point Humidity Pressure Visibility Wind Dir Wind Speed Gust Speed Precip Events Conditions
12:00 AM 51 °F - 43 °F 67% 30.10 in - SE 2.3 mph - -  
12:00 AM 51.8 °F - 42.8 °F 71% 30.09 in 6.2 mi SE 2.3 mph - N/A   Unknown
12:30 AM 50.0 °F - 44.6 °F 82% 30.09 in 6.2 mi East 2.3 mph - N/A   Unknown
1:00 AM 50.0 °F - 46.4 °F 87% 30.09 in 6.2 mi ESE 5.8 mph - N/A   Unknown
1:30 AM 50.0 °F - 46.4 °F 87% 30.09 in 6.2 mi SSE 3.5 mph - N/A   Unknown
2:00 AM 48 °F - 46 °F 89% 30.08 in - SW 4.6 mph - -  
2:00 AM 48.2 °F - 46.4 °F 93% 30.09 in 6.2 mi SW 4.6 mph - N/A   Unknown
2:30 AM 48.2 °F - 44.6 °F 87% 30.06 in 6.2 mi ESE 5.8 mph - N/A   Unknown
3:00 AM 49 °F - 45 °F 83% 30.07 in - ENE 3.5 mph - -  
3:00 AM 48.2 °F - 44.6 °F 87% 30.06 in 6.2 mi ENE 3.5 mph - N/A   Unknown
3:30 AM 46.4 °F 45.2 °F 44.6 °F 93% 30.06 in 6.2 mi NNW 3.5 mph - N/A   Unknown
4:00 AM 44.6 °F 42.2 °F 44.6 °F 100% 30.06 in 6.2 mi SE 4.6 mph - N/A   Unknown
4:30 AM 46.4 °F 45.2 °F 44.6 °F 93% 30.06 in - South 3.5 mph - N/A   Clear
5:00 AM 46 °F - 44 °F 92% 30.07 in - East 4.6 mph - -  
5:00 AM 46.4 °F 44.3 °F 44.6 °F 93% 30.06 in - East 4.6 mph - N/A   Clear
5:30 AM 42.8 °F - 42.8 °F 100% 30.09 in - Calm Calm - N/A   Clear
6:00 AM 44 °F - 43 °F 95% 30.09 in - North 3.5 mph - -  
6:00 AM 44.6 °F 43.1 °F 42.8 °F 93% 30.09 in 6.2 mi North 3.5 mph - N/A Fog Patches of Fog
6:30 AM 44.6 °F - 44.6 °F 100% 30.09 in 6.2 mi Calm Calm - N/A Fog Patches of Fog
7:00 AM 46.4 °F - 46.4 °F 100% 30.09 in 6.2 mi SSE 1.2 mph - N/A   Scattered Clouds
7:30 AM 50.0 °F - 48.2 °F 94% 30.09 in - Calm Calm - N/A   Clear
8:00 AM 52 °F - 49 °F 85% 30.11 in - ENE 2.3 mph - -  
8:00 AM 51.8 °F - 48.2 °F 88% 30.12 in - ENE 2.3 mph - N/A   Clear
8:30 AM 55.4 °F - 50.0 °F 82% 30.09 in - NNE 2.3 mph - N/A   Clear
9:00 AM 59 °F - 50 °F 63% 30.10 in 12 mi North 1.2 mph - -   Partly Cloudy
9:00 AM 59.0 °F - 50.0 °F 72% 30.09 in - North 1.2 mph - N/A   Clear
9:30 AM 62.6 °F - 51.8 °F 68% 30.09 in - NNW 3.5 mph - N/A   Clear
10:00 AM 66.2 °F - 50.0 °F 56% 30.09 in 6.2 mi NNW 4.6 mph - N/A   Mostly Cloudy
10:30 AM 69.8 °F - 50.0 °F 49% 30.06 in 6.2 mi NNW 8.1 mph - N/A   Mostly Cloudy
11:00 AM 72 °F - 49 °F 33% 30.06 in - NW 9.2 mph - -  
11:00 AM 71.6 °F - 50.0 °F 46% 30.06 in 6.2 mi NW 9.2 mph - N/A   Mostly Cloudy
11:30 AM 71.6 °F - 48.2 °F 43% 30.06 in 6.2 mi NNW 11.5 mph - N/A   Mostly Cloudy
12:00 PM 74 °F - 50 °F 31% 30.04 in - WNW 8.1 mph - -  
12:00 PM 73.4 °F - 50.0 °F 44% 30.04 in 6.2 mi WNW 8.1 mph - N/A   Partly Cloudy
12:30 PM 73.4 °F - 50.0 °F 44% 30.04 in 6.2 mi NW 11.5 mph - N/A   Mostly Cloudy
1:00 PM 73.4 °F - 50.0 °F 44% 30.01 in 6.2 mi North 6.9 mph - N/A   Mostly Cloudy
1:30 PM 73.4 °F - 48.2 °F 41% 30.01 in 6.2 mi NNW 5.8 mph - N/A   Mostly Cloudy
2:00 PM 75 °F - 46 °F 25% 29.99 in - WNW 8.1 mph - -  
2:00 PM 75.2 °F - 46.4 °F 36% 30.01 in - WNW 8.1 mph - N/A   Clear
2:30 PM 75.2 °F - 48.2 °F 38% 29.98 in - NW 10.4 mph - N/A   Clear
3:00 PM 77 °F - 47 °F 24% 29.96 in - WNW 8.1 mph - -  
3:00 PM 77.0 °F - 48.2 °F 36% 29.98 in 6.2 mi WNW 8.1 mph - N/A   Mostly Cloudy
3:09 PM 77.0 °F - 46.4 °F 34% 29.95 in 6.2 mi NW 17.3 mph - N/A   Mostly Cloudy
3:30 PM 78.8 °F - 46.4 °F 32% 29.95 in 6.2 mi West 10.4 mph - N/A   Mostly Cloudy
4:00 PM 77.0 °F - 44.6 °F 32% 29.95 in 6.2 mi West 10.4 mph - N/A Thunderstorm Mostly Cloudy
4:30 PM 77.0 °F - 44.6 °F 32% 29.95 in 6.2 mi West 9.2 mph - N/A Thunderstorm Mostly Cloudy
4:43 PM 71.6 °F - 42.8 °F 35% 29.98 in 3.7 mi South 12.7 mph - N/A Rain , Thunderstorm Thunderstorms and Rain
5:00 PM 66 °F - 50 °F 45% 29.97 in - SSW 20.7 mph - -  
5:00 PM 66.2 °F - 50.0 °F 56% 29.98 in 2.8 mi SSW 20.7 mph - N/A Rain , Thunderstorm Thunderstorms and Rain
5:24 PM 62.6 °F - 55.4 °F 77% 29.98 in 6.2 mi East 8.1 mph - N/A Rain , Thunderstorm Light Rain Showers
5:30 PM 62.6 °F - 53.6 °F 72% 29.98 in 6.2 mi ENE 10.4 mph - N/A Rain , Thunderstorm Light Rain Showers
6:00 PM 65 °F - 52 °F 54% 29.97 in - North 11.5 mph - -  
6:00 PM 66.2 °F - 51.8 °F 60% 29.98 in 6.2 mi North 11.5 mph - N/A Rain Light Rain Showers
6:30 PM 64.4 °F - 55.4 °F 73% 29.98 in 6.2 mi North 10.4 mph - N/A   Mostly Cloudy
7:00 PM 62.6 °F - 53.6 °F 72% 29.98 in 6.2 mi East 6.9 mph - N/A   Scattered Clouds
7:30 PM 60.8 °F - 55.4 °F 82% 30.01 in 6.2 mi ESE 5.8 mph - N/A   Scattered Clouds
8:00 PM 60 °F - 54 °F 75% 29.99 in - East 5.8 mph - -  
8:00 PM 60.8 °F - 53.6 °F 77% 30.01 in 6.2 mi East 5.8 mph - N/A   Scattered Clouds
8:30 PM 59.0 °F - 53.6 °F 82% 30.01 in - Calm Calm - N/A   Clear
9:00 PM 59.0 °F - 53.6 °F 82% 30.04 in 6.2 mi North 4.6 mph - N/A   Mostly Cloudy
9:30 PM 57.2 °F - 53.6 °F 88% 30.04 in 6.2 mi ESE 3.5 mph - N/A   Mostly Cloudy
10:00 PM 55.4 °F - 51.8 °F 88% 30.04 in 6.2 mi ESE 5.8 mph - N/A   Unknown
10:30 PM 51.8 °F - 50.0 °F 94% 30.04 in 6.2 mi SE 6.9 mph - N/A   Unknown
11:00 PM 53 °F - 50 °F 84% 30.04 in - North 4.6 mph - -  
11:00 PM 53.6 °F - 50.0 °F 88% 30.04 in 6.2 mi North 4.6 mph - N/A   Unknown
11:30 PM 51.8 °F - 48.2 °F 88% 30.06 in 6.2 mi NE 3.5 mph - N/A   Unknown